User: anonymous   Login
Location: Caltech
(34.1382°N, 118.1253°W)
Time: 03:12:01
(UTC-08:00)
Language:

TMSAT-1 - Orbit

View from above orbital plane
View from above orbital plane
View from above satellite
View from above satellite

Ground track
Ground track

The orbit data is extracted from the following two-line orbital elements,

1 25396U 98043C   15060.51535086  .00000195  00000-0  10257-3 0  9997
2 25396 098.4771 017.6528 0001522 242.8058 228.7139 14.24282817864785
Epoch (UTC): 01 March 2015 12:22:06
Eccentricity: 0.0001522
inclination: 98.4771°
perigee height: 810 km
apogee height: 812 km
right ascension of ascending node: 17.6528°
argument of perigee: 242.8058°
revolutions per day: 14.24282817
mean anomaly at epoch: 228.7139°
orbit number at epoch: 86478

The dashed part of the orbit path shows where the satellite is in the earth's shadow,  

DLR